indice_tiempo,oferta_global_pib,oferta_global_importacion,oferta_global_total,demanda_global_consumo_priv,demanda_global_consumo_publico,demanda_global_ibif,demanda_global_ibif_equipo_durable_produccion,demanda_global_ibif_equipo_durable_produccion_nacional,demanda_global_ibif_equipo_durable_produccion_importado,dg_ibif_equipo_durable_prod_maquinaria_equipo_total,dg_ibif_equipo_durable_prod_maquinaria_equipo_nacional,dg_ibif_equipo_durable_prod_maquinaria_equipo_importado,dg_ibif_equipo_durable_prod_material_transporte_total,dg_ibif_equipo_durable_prod_material_transporte_nacional,dg_ibif_equipo_durable_prod_material_transporte_importado,demanda_global_ibif_construccion,demanda_global_exportacion,demanda_global_total
1993-01-01,98.2699934009248,99.67324677575716,98.3892095844172,97.68373016293987,98.23243603363714,100.89592538487908,100.58396511128113,100.134467066908,101.47029402282415,100.55349444697126,100.0987450948173,101.34453548415185,100.66025592564733,100.21173913339867,101.90393034307981,101.06621020650064,98.66545030067894,98.38920958441733
1993-04-01,99.74508022996986,100.49366758014722,99.8021410235691,99.50657645093528,98.65858195885265,100.76646807285054,100.39522636811864,100.00245035368933,101.21441059302538,100.47031269356421,100.08889196938173,101.12143962400108,100.22345606656222,99.8424926755282,101.57084311822182,100.99390038278699,98.5116113103239,99.8021410235691
1993-07-01,100.34977248834471,99.93267215821075,100.31349248186221,100.85652263566134,98.97250753913566,99.43218599533968,99.90406391734956,99.9610299424891,99.80247805952102,99.95054223601404,100.04710861204984,99.79631255716457,99.81025464424292,99.80678755220674,99.81806935558231,99.12740136708028,102.06855740441438,100.31349248186221
1993-10-01,101.43232402562501,99.9305702138329,101.29360672358784,101.71660667036085,103.8963781952851,99.21713426405435,99.38609541127057,99.94065438596155,98.53339040850993,99.26920367841964,99.79383902817234,98.58160236165159,99.63060396888947,100.1942433771442,98.39398882954896,99.10430930659169,100.78385008115951,101.29360672358784
1994-01-01,100.91772138409156,100.56514181779623,100.88094766232716,101.87246617453398,103.78324547197855,99.09139774794544,99.41428462339817,99.75749896839386,99.01243602614362,99.72794149780353,99.60336608844531,99.84950030552787,98.62707246486544,100.04985442076,95.94388122632454,98.87370251930189,99.42972276353419,100.88094766232716
1994-04-01,102.4109032059624,100.84744939586558,102.26944238744764,103.18914946007796,105.09210555487729,99.82767739381984,100.52520665515856,100.05642868270219,101.20487497709001,101.11689157435828,100.21350790293337,102.17562640573325,99.27562746569072,99.8014843395743,98.03617929706687,99.36522812541702,102.37408499141667,102.26944238744764
1994-07-01,102.92023432741075,102.86668147820205,102.91510153953485,104.40647871007273,104.15400357001647,100.57982975631464,100.85636833975956,99.93466018126111,102.15478177644681,101.63807959502722,100.19234047023136,103.44342394604737,99.57188068509187,99.5634319926953,99.58647602633357,100.3864385990568,104.36212813264056,102.91510153953485
1994-10-01,104.96660362714923,104.90466353918755,104.96069818372985,105.15673451686531,109.83587868013332,101.08436569827796,100.87562219136193,100.13279077330441,101.8568681454836,101.70119919864314,100.42839586992802,103.19719409444087,99.39477404303221,99.6713634273959,98.94182732058593,101.22533135967196,104.80394705830834,104.96069818372985
1995-01-01,105.22668499421606,107.33438902629058,105.44032416790097,106.80486639592604,105.71469869995262,102.59588951580459,99.75204201059064,100.10422190630538,99.30243537522242,100.44409174855214,100.58612091962584,100.2836702557623,98.22022737334633,99.2032359044495,96.5611992329358,104.41198937789073,106.95776028615145,105.44032416790097
1995-04-01,105.44523381041193,108.54240322599931,105.69936122615802,106.33704435795586,105.84775171683506,104.76056524420778,101.36754166174957,99.98462555402264,103.62037934311992,102.63237533349073,100.83592195044793,105.34289683931617,98.40935535445286,98.17658669275204,98.86579500367993,106.78891366074117,108.9834007562593,105.69936122615802
1995-07-01,106.0498560468345,108.73346576877489,106.28171178302952,106.35185199787888,104.92988042559581,104.80205726371743,100.61069362341843,99.78361214159273,101.90211167272633,101.63018056404509,100.58142831274269,103.28174837193183,98.31372407195464,97.9664769902772,98.84562993733341,107.3568351874093,109.21108324940872,106.28171178302952
1995-10-01,107.68295821645546,108.32424834924974,107.74102465352303,106.76883799426086,109.26623217124471,103.70209699885511,99.87835562152276,98.9843620306612,101.06551126137249,101.24172342582773,100.47632943982245,102.17743582825507,95.9972115677463,95.26675705995892,97.2325925112186,106.10182653659095,107.42450698847944,107.74102465352303
1996-01-01,106.1859903069458,110.37586308241725,106.59489032320933,106.90067005147255,102.94465719424335,103.71069286285153,99.73251872825672,99.21965632077732,100.37148230762163,100.8844768378049,100.53815537736688,101.31374251799797,96.40332771671683,95.44281111306852,97.617911880759,106.08246640829917,109.65864332797372,106.59489032320933
1996-04-01,107.44585539491224,106.49467932250285,107.35841068564184,106.37937246588625,102.5310497149758,102.19678221829953,97.83653711941798,99.04930327279271,96.29388946785825,99.64127374823484,100.84260980918461,98.04565394751312,93.87422492847955,94.86296422767381,92.72959656744925,105.20418472342963,117.33954907310505,107.35841068564184
1996-07-01,104.70516300131595,105.22929861155103,104.7599417414619,105.80640109061481,100.61901051458149,100.3953448924626,98.01805740273963,98.47037744173332,97.46640518628823,100.33348859726622,100.78223224298154,99.77704964234879,93.05085628783674,93.3925464779664,92.64865324713185,101.99439538209982,115.79580521584312,104.7599417414619
1996-10-01,105.88327088365553,104.86984443158246,105.77920814021728,106.71861974539361,105.66544390416051,100.22361157748358,97.79992041626032,98.21072976293634,97.35089804874029,100.07785653591543,101.06528736006024,99.05517951939386,91.99872708851288,91.56441637497001,92.54366182704051,101.84818613846483,113.3435683236733,105.77920814021728
1997-01-01,105.80082060293319,107.22429342835666,105.96174975908083,107.33422652136116,102.50182463550237,100.6753833188605,98.80613553718031,98.69939935542101,98.90315540979498,100.7617758139552,100.52203599678522,100.9864304857047,94.63782916221865,94.61354044316997,94.65851584365652,101.91359048357273,112.5167659317825,105.96174975908083
1997-04-01,106.42465514984099,104.47496185646223,106.21376101814717,106.28399561901934,101.71630202528226,99.79379072564399,96.75782809735992,97.39833247817327,96.13725437610707,99.26761690569478,100.04774975847141,98.50631358094998,91.85151279318251,92.16285413383926,91.5540642056104,101.96334869837533,111.88898123334525,106.21376101814717
1997-07-01,104.98877500492473,102.29172544075031,104.66623686178977,106.14852903843992,103.4721060217273,98.48160349519495,95.07940794353932,95.90998074564087,94.32922114055074,98.0201123695655,100.11708319908182,96.29222767376572,88.93772018428888,88.30932486864786,89.62461308648543,100.95678191565062,110.52538080425624,104.66623686178977
1997-10-01,105.05092246117218,103.52348733358379,104.87222585957367,105.6996388277798,106.27439482007574,99.08086873933402,95.79343923959634,96.05023022080186,95.55945815014718,98.81611733292426,100.13398777272072,97.70537740020903,88.90601121481492,87.88138071516224,90.02038252499153,101.48593281300037,108.98837489879686,104.87222585957367
1998-01-01,104.07131697493635,103.60512467116641,104.01384324399856,105.20207635612296,105.47687918082201,99.06949535854896,95.25079888086212,97.51910566547326,93.4463615570936,97.31446220388094,100.21895088416497,95.05556026829404,90.70372950208977,91.80330169903759,89.78455292529,101.92876954262037,104.02805153820796,104.01384324399856
1998-04-01,103.62590893742605,99.53571345232837,103.15568871456861,104.27648737062134,105.78984184561939,97.94816824778205,93.88032304140481,97.06362127340134,91.16590025653575,96.27844909724703,100.14968357428948,93.03547378019833,89.34971646348744,91.39169302415993,87.5492681018628,101.09035661821156,102.7917431252449,103.15568871456861
1998-07-01,104.14549134650039,97.76166969435074,103.3562455574606,104.89824817859423,105.39556588845048,97.90186375270717,94.73657618026184,97.77630903082373,92.16008525686357,97.26656384174468,100.55788310268854,94.40958895698562,90.22980482926654,92.6393818562232,88.27250732662522,100.14394100873021,99.58150482257435,103.3562455574606
1998-10-01,103.19891783394944,96.70628568121099,102.45750556018352,103.64003549989486,107.09808939619059,97.34556695189367,93.45505079680795,96.90425277775492,90.50110699694848,95.12189309862545,98.78852639361106,92.14477834752716,89.89913075603766,93.22460398093466,86.71009802671557,99.94260304989247,97.42422537166878,102.45750556018352
1999-01-01,102.15895164157524,97.47383089812017,101.62872970311425,104.05206114147553,108.48263170722979,97.85135277389568,93.19346030871075,94.90264594608865,91.65527936873819,95.25563645410764,97.16272710500238,93.5047531701414,88.4515885285615,89.52102826885466,87.53239667739992,100.87532541533312,91.81385860656165,101.62872970311425
1999-04-01,100.84407296666392,94.06162008748005,100.16079463368108,102.43341317387107,106.0030676189798,96.32091611236706,89.69322608881274,92.73660647785715,86.97248167682676,91.45907717064321,95.32328770037121,88.08708506874811,86.30351877227466,87.95184029752133,84.76003177831652,100.69444833041028,89.76849341493393,100.16079463368108
1999-07-01,102.37521597818893,93.47395226908628,101.34373147424422,102.72452988739407,106.62086883659458,95.57956947494876,89.22241409807867,92.02745180585883,86.76600026888617,90.19137441249408,94.08493301986236,87.38428078723923,87.63432430736482,89.43748474297793,85.47061995843251,100.35683136153273,90.59108676031178,101.34373147424422
1999-10-01,102.0673922545283,94.70279631779255,101.24437840461272,101.74313878861479,109.18694174999702,95.09380470853213,89.65454804433692,92.47604484690677,86.93294049633471,90.6379609338574,94.49713623393528,87.6778052116534,87.76648528956815,89.66989852173634,84.9084424432367,98.87054135340898,94.08462443268631,101.24437840461272
2000-01-01,102.22576007224622,98.5338971339788,101.80323266838288,103.36616944435764,108.85154187651057,95.51285083491636,90.19326353358092,93.36008877710924,87.28706022830096,91.36204845576448,95.20759424801267,88.44937261434434,87.58619823909143,90.32212691116426,83.73541409704784,98.90828016285357,98.403768187572,101.80323266838288
2000-04-01,102.28580300500883,96.1073266899504,101.64046094812535,101.64557486802217,107.69004901278458,93.1880872735332,87.23452342484,91.1256657411964,83.59165277724784,88.80912581885076,93.59145809114985,84.79735811901442,83.68352945896625,86.47248645713175,80.34065055180625,97.14679954682305,98.88646819021645,101.64046094812535
2000-07-01,103.87605231500258,94.27921374770926,102.78011358326857,102.49112905171674,106.44137867514183,91.73737224446428,84.99879710975723,89.63148886077249,81.32514002068329,85.49197803077719,91.0462225193597,81.89745870942254,83.68925220745214,87.05736909017412,79.16258109798858,96.37735368042489,100.35649600382533,102.78011358326857
2000-10-01,103.23178891187541,94.96977460838211,102.31475133991866,102.33791517312892,107.92531868389959,91.70650867406842,85.89338784637634,90.33211005147432,81.97373684200035,86.89943116335446,91.7754178398757,82.9857334703276,83.39476299469356,87.30796792183581,79.02109512776242,95.52796959174853,101.74916624517363,102.31475133991866
2001-01-01,101.593640741629,96.85352903020835,101.03748022595451,103.2056833421883,108.99597916135076,93.35566226476737,87.99057956482416,92.21971572980972,84.45688285190765,88.60265753502728,92.7909063388016,85.23902699455327,86.20108904410775,90.68252446932784,81.99975299508796,96.52335671484462,100.67960048683406,101.03748022595451
2001-04-01,101.13425573731433,94.43113028525921,100.45935269792588,101.63585910459834,108.9277300352857,90.07986542935566,84.47084561185056,88.32874402802156,81.22786018909042,85.5022676862226,89.94708765485593,81.74775173576066,81.60190612690327,83.78208148459143,79.79379889797218,93.30950096472354,96.23196039830403,100.45935269792588
2001-07-01,103.13184781019234,90.31566925275139,101.84804343519083,101.88396102987039,103.87696351371763,89.76813684413287,83.27270039364592,83.91288016608567,82.65435906667284,84.71161684390326,86.59670127403625,82.97496503691022,79.17330676317086,76.92917611771556,81.65352236914909,93.225814215075,97.14259093998011,101.84804343519083
2001-10-01,101.28519270093706,89.02290108988691,100.24754245887166,101.8207155101961,105.57673089197375,92.06074847104178,87.33910329076367,91.84541000357811,81.63497248257642,87.79197944813394,92.411736776879,82.0004229325633,85.76783243092397,89.91741081521921,80.33586413887285,94.3743009922478,93.54380159001154,100.24754245887166
2002-01-01,109.31854829676708,186.53735285099287,114.21347125242063,110.08771074902765,108.55540426357942,110.62572513022289,120.85596582076332,106.37167166597801,150.81030443767122,120.84428819821866,107.59095757432621,150.89150935335357,120.88949342765052,102.43477554958211,150.6239652247615,106.01225395994176,161.52985269502608,114.21347125242063
2002-04-01,137.63218095822546,295.83084895140024,146.15652932885075,127.66329813247074,110.65432663676675,139.8210779389494,171.94786797544677,143.17972939560144,253.38476305649365,164.2738707127115,141.80004792901076,253.7000478972567,192.72575328875348,148.36302786756482,252.98045214291153,125.18464234063231,274.33700784772304,146.15652932885075
2002-07-01,140.68344655306348,324.70468060398605,151.47009709834606,129.6,115.25921105034203,150.95712143136763,187.95271448503544,158.4238819658653,267.40158336318575,185.2999151403279,156.65519439861424,272.9970443675764,198.5358549351656,166.86237679478225,252.53529763763422,135.06254642110576,310.8633227718589,151.47009709834606
2002-10-01,141.55743568268892,319.10121831485003,152.4824397030218,130.27677341866277,117.09533452803605,155.65021856246963,200.70420009871833,175.10876310858924,267.43946921803837,189.59890471743574,169.31800962287647,259.4364596708444,236.13220132459247,200.84059745514983,280.3907563576344,134.6041850035825,316.5278354896193,152.4824397030218
2003-01-01,143.2054521696581,285.5771835743553,152.99289699770645,133.51620542478489,124.13074855564268,160.06405816383585,184.06965494091997,158.7513505241615,234.03602526918874,179.45580820671512,153.06246582599778,242.7678462952183,197.49443178471228,180.3352078191016,217.74071743049112,149.13852850337014,286.68463670621196,152.99289699770645
2003-04-01,150.38248331805158,265.5680863099184,158.1190708915927,146.26899167512454,120.05447759953837,153.16349492225092,168.52842253081744,155.53272529548158,191.26074005313038,166.8431019753182,152.45994063021962,195.81300021142144,173.3961296367081,166.4362978753414,181.6963013949246,145.90217139304457,273.8364288870292,158.1190708915927
2003-07-01,144.48847480072786,266.5519283136422,153.80415321732934,141.15833155911295,122.44460479478614,151.43711179320655,175.18854790530912,157.38567975969852,199.77549004212955,173.6062962336632,152.77774401914073,205.0128912707438,179.73096844352554,172.7091926727054,187.30931192788657,140.1834478455853,265.10631780765834,153.80415321732934
2003-10-01,148.67000360448645,270.5973699379064,158.63817111133537,143.98632466848548,134.48747380321677,157.0913379555753,189.98969195888927,173.81771811173238,211.86600035141922,184.78862572296123,164.00114849617535,213.6429274237023,206.47462294091517,206.40148452366526,206.565851593761,139.77356165217708,286.54000681484075,158.63817111133537
2004-01-01,154.4516085451067,271.2045319048614,165.39038986640145,147.4509727253744,140.86990942809066,172.87302840559138,191.78527824721084,157.95694446684433,223.51578854280496,190.05011942532772,153.08918096200205,236.044451560816,195.09155907664712,172.66015429260878,207.1576128308636,161.72245007047334,285.2438350124784,165.39038986640145
2004-04-01,166.75588990027023,283.7041544957855,176.97544186501582,161.07780256076276,138.28124047910876,171.54872634967114,182.35090573095286,167.36862604189557,198.51102435772214,183.67749111160137,165.46415243341056,205.46937060081675,179.3085449682021,172.5016801200108,185.11982649209637,165.41361676808347,318.3995176237059,176.97544186501582
2004-07-01,158.96353222401666,294.7918911185041,171.8691643794368,151.8906581044184,139.75912935328193,173.71076044935302,192.82221505070024,171.92741344280307,211.59036185124575,192.0373295145015,169.41765032127975,215.66850392784085,194.58438704180654,179.33888316777498,204.2681963676164,162.19412160237383,304.23356462249643,171.8691643794368
2004-10-01,160.65296313197845,299.60627109132696,173.86129758528256,150.92728626806243,146.2462278429292,177.59019168124527,204.32763833439128,193.15926848325452,214.76679331258893,199.10395242636446,184.90459737894304,213.70679275631707,218.61501435055425,220.55623284304713,217.2218632091736,161.81588172843792,303.38972412483514,173.86129758528256
2005-01-01,166.34118101382492,292.9423507480492,178.96368033638274,156.80154321766187,164.73115755289118,188.42090585705222,194.61192674191082,174.02834880580477,211.90095783954524,199.10376441999225,170.42775232263057,225.41211154589632,185.1278219878812,182.89748661703126,186.67853825180683,184.61061789011515,283.0633788617753,178.96368033638274
2005-04-01,175.9680813593929,297.8014953654333,188.29242450925204,167.97630573079053,162.16019146160446,187.36503209257623,187.94987468167886,179.14094491649723,194.8873042060595,188.31428299821897,177.58552002489535,198.54941092691655,187.31966931648824,182.80771576739457,189.83746340524573,186.99056255252972,311.844102155817,188.29242450925204
2005-07-01,175.22224449522886,292.8062326784017,187.18636298805058,162.21203997150843,171.4670609848422,185.3594750144974,191.69414052040742,181.69440377412585,199.5819934662515,191.8056142540213,177.69759817571097,203.65664528018925,191.44022163019397,191.94350162758673,191.0969064214045,181.4993780286503,314.3890095921283,187.18636298805058
2005-10-01,179.51882132885007,305.85931299035093,192.3873471375588,163.94403322484743,177.79689071442334,193.28445393937167,207.21659242619674,200.09264248352645,213.57188089744622,199.6042566334994,186.52684136738534,213.2983292640013,223.49103081013286,238.53505959834519,214.03708424234597,184.83926313333518,327.0408915736809,192.3873471375588
2006-01-01,190.158270981574,301.4917459596785,202.08093220448012,175.19551375458,201.20275841259422,210.93242806714022,209.3504282944354,194.78384480377017,219.9068244583297,205.9101737275676,183.9448403301511,222.3722473841799,216.6828977622966,219.3597999561062,214.87812527942407,211.9240563247156,313.41325262279946,202.08093220448012
2006-04-01,200.52950582969476,318.87891891584775,212.40384388573906,182.51457382811898,201.51173752630433,212.3207131515873,200.72286837403811,195.39328206123173,204.8885922828608,199.04355957270644,192.33653112215887,204.73580554428275,204.15017927383846,202.60460988284268,205.1683831842265,219.0454785831764,359.2693500661178,212.40384388573906
2006-07-01,197.8425710342763,321.65649067649093,211.61836020828747,178.19260049094765,206.53224238005814,214.17552973281303,208.88541199166048,203.741769238673,212.29117386442695,204.7293079617969,198.67250521861902,209.19743948489455,217.33192097861885,216.4121550713802,217.81677549429793,217.49888638437395,356.1478434432296,211.61836020828747
2006-10-01,202.33860873095048,327.6250251529619,215.98147370724533,179.52829590253842,215.06093177677624,217.36613141986157,216.90848984360383,222.17349099603513,212.31779407358346,210.61085568473342,210.8289851010062,210.4037312864115,231.2899990187979,252.41694904424202,216.16498683748583,217.64927348168675,369.4464191261841,215.98147370724533
2007-01-01,211.23344361702223,313.03447808205306,223.26569258036,193.76599621823502,234.76933631088005,236.85388591343983,219.8568519166952,215.57517294203072,222.47628142058556,217.0959007355707,206.57304519251144,223.81566762306915,225.41695354054343,235.24849747710283,219.90774981035796,248.8915583723991,337.8427123428925,223.26569258036
2007-04-01,227.24970098777564,334.50877465011195,238.91668572621984,203.88950669498507,243.9889729719332,233.57367351243195,202.74413602827926,207.17489173016398,199.69910515408543,202.6939060627114,205.9153407848982,200.4086237370415,202.8510819074822,210.02147058374456,198.24805928340402,253.90997754555485,385.1313459943535,238.91668572621984
2007-07-01,225.1363468750833,367.26755321333513,242.24410024883176,204.4884957655559,247.75971158075455,242.95785752955035,222.75701667156233,221.82591792722585,223.28474552203258,221.19649024252067,216.9528195586837,223.78032663719273,225.9662785706566,233.4096255682776,222.34290120060837,257.6474987020099,401.68551168744716,242.24410024883176
2007-10-01,238.9545708920933,364.4435780054363,254.18414608213084,206.19821122667096,262.35518770316395,252.8048855864504,238.8598483665766,246.18241649845407,233.2056808718172,234.21189284858252,236.03270127019735,232.65712234005647,248.10592649921824,270.2617725350012,234.16499068409934,262.3846470308143,454.1063491244794,254.18414608213084
2008-01-01,253.65191435650303,354.5103300253361,266.870492151245,224.31502009385324,281.57748913270774,269.6461509260245,238.94991918729235,244.37910138274356,236.32302469448817,237.95519697891731,239.78254022800738,236.94381151491135,240.55007141707847,253.87295352670756,235.43330614670012,296.2437202789526,451.05722370536574,266.870492151245
2008-04-01,279.62308703378153,394.017132727143,293.76375184223633,244.09677402388655,306.39460988626854,263.6493275945426,211.79828964343622,220.4868951255894,206.82702852410029,208.25487381709857,210.02467674857255,207.2298859364383,218.87327903467022,241.86860632795458,206.033243604368,302.9873616644879,507.16308513677194,293.76375184223633
2008-07-01,269.0700349662301,405.1195962642586,286.3143209138602,241.68922720749197,317.74457357882204,270.2522084263536,230.11010372269016,252.05914703206926,218.53063711913475,228.88172223391078,247.48924004775694,218.5462800533211,232.56991700420951,262.2120937267483,218.50093996904656,303.24995270672923,508.28689662823524,286.3143209138602
2008-10-01,273.1860537444706,413.50532912751834,289.49957918386735,238.57133038925835,316.19203425016826,282.7763255115608,254.13611744476884,278.51798037288773,237.23140389041882,249.6534346014276,265.4013958692085,236.17485594577596,263.20599353771837,318.65369972345803,238.88991892874475,302.1567076885097,514.1035780997225,289.49957918386735
2009-01-01,278.06558827932355,388.52859162236484,289.1982719576618,252.09703694379456,345.80612494482784,304.80179862056815,263.7511139976438,290.5921902491747,244.37781230291105,264.7633043021146,284.8046676555012,250.37013062095843,260.97373192854343,306.3013086436401,227.8053935483618,331.0776745233641,447.7326947683661,289.1982719576618
2009-04-01,304.0257771741541,410.36010705678586,314.10581154086924,272.78930249160265,358.85798744989654,293.184536188349,238.49836370932874,259.7730542942109,222.5964995103714,242.71573985396836,264.2718431545058,223.1820757635175,229.72670863647906,246.23747482887035,221.644804713011,328.6718923778521,519.7060485727684,314.10581154086924
2009-07-01,298.4064095473643,434.882452927007,312.53628000026447,270.25715771413826,364.51259473675924,302.19438717602446,274.97567752166157,306.23692990566923,254.2547377597309,271.26518568493503,302.7730327570143,248.71349781875924,283.8078024131603,315.94046926178237,266.16354769088196,320.8725044737365,523.5725523154715,312.53628000026447